Tracking 19846 objects as of 18-Sep-2019
HD Live streaming from Space Station
objects crossing your sky now

FENGYUN 1C DEB

Track FENGYUN 1C DEB now!
10-day predictions


NORAD ID: 32342
Int'l Code: 1999-025CYK
Perigee: 852.6 km
Apogee: 863.2 km
Inclination: 98.9 °
Period: 101.9 minutes
Semi major axis: 7228 km
RCS: 0.023 m2 (small)
Launch date: May 10, 1999
Source: People's Republic of China (PRC)
Launch site: Taiyaun Space Center, China (TSC)

Note: This is SATELLITE DEBRIS
aabbcc
Your satellite tracking list
Your tracking list is empty




NASA's NSSDC Master Catalog

Two Line Element Set (TLE):
1 32342U 99025CYK 19260.31334816 +.00000008 +00000-0 +28100-4 0  9999
2 32342 098.8627 289.2989 0007380 350.8641 069.3511 14.12518600615463
Source of the keplerian elements: AFSPC